Matched Transactions 

topic0
0xddf252ad1be2c89b69c2b068fc378daa952ba7f163c4a11628f55a4df523b3ef

A total of 174 transactions found

Txn Hash
Block
From
To
Value [Txn Fee]
0x470dcceb7b28ad6f915c8ba42731bd6a06d4cbb895644216616a4090c1d4821d49008672021-02-15 11:20:3081 days 17 hrs ago0x3c7552605f28f4c7fe4634ff1977774f02de3ebf Speedking: SKT Token0.007833442383252 BNB0.00082902
0x65cc837c2228f9e8a91d266a61d884bce484726fb3314c30dbf374e6af07912649145602021-02-15 22:47:5581 days 5 hrs ago0xe5d31ddf9ee2864c87d99f60a038af1b5204f5cf Speedking: SKT Token0 BNB0.00033602
0xe4b4de2ca262ddaaff1bfa7b33610b046efb4adec86af8511c1b53fa2c69869549146052021-02-15 22:50:1081 days 5 hrs ago0xe5d31ddf9ee2864c87d99f60a038af1b5204f5cf Speedking: SKT Token0.0034151 BNB0.00067902
0x0515229fe65d8454edc8cc83e2754d9c7386933448a5b6da29a4ce017884cd3d49165132021-02-16 0:25:4381 days 3 hrs ago0xcfa18cc84f2e85a7a66d7f46a62bfa155050c8b9 Speedking: SKT Token0 BNB0.00033602
0xe439a72a850b36a1562cdd3a395b6236fdfb07786f270cc7f8909fa5c684393749167812021-02-16 0:39:0781 days 3 hrs ago0x7eab53a59866e20892624eb89dcf195e48bb2b09 Speedking: SKT Token0.0001 BNB0.00067902
0x1abcb45a16922a417136495b539b33d549a0569fc3243709977d974b80bcfb6849168102021-02-16 0:40:3481 days 3 hrs ago0x7eab53a59866e20892624eb89dcf195e48bb2b09 Speedking: SKT Token0.001 BNB0.00052902
0xa8ef2b62cb5045190be9012f47920f13973a8a6290513055c9ab604f3150625a49185922021-02-16 2:09:4381 days 2 hrs ago0x261c5e71ee22463b9926ac2d41a2a13aa64c3e4c Speedking: SKT Token0.002 BNB0.00074692
0x8793dd543588be31637060b24184a44cea91b3e57aaf8594b5e43a5d3e645f6349376662021-02-16 18:08:0680 days 10 hrs ago0xb90f7f4d7e266b2b2de82fd9e6c118ac9eb9f821 Speedking: SKT Token0.01 BNB0.00067902
0xe669191f15078a14a9e6eb3c5111b8bea9e301c088165d91701c867dd3ebe07549765722021-02-18 2:39:1779 days 1 hr ago0x83bc2ae288d095a99675a6f0c2cc988fd0cbd5e5 Speedking: SKT Token0.001197559370852 BNB0.00067902
0xaea4be3ec952e17c855c962c94bcea07d5e45ccc0d1186b39c213a025a15125351600202021-02-24 14:41:0972 days 13 hrs agoSpeedking: Deployer Speedking: SKT Token0 BNB0.00051622
0xe99e1f63745173fff72616751a4e7bea651dfc3b45fa315e4433c3673208d95b52149652021-02-26 12:36:2270 days 15 hrs agoSpeedking: Deployer Speedking: SKT Token0 BNB0.00051646
0x01b56a4f1f3e32e763d81291ea705eeb5b94af3d937eec02db5a97faecaf0d4d52516732021-02-27 19:18:2469 days 9 hrs ago0x83bc2ae288d095a99675a6f0c2cc988fd0cbd5e5 Speedking: SKT Token0 BNB0.00051574
0x07ec963c3005b055b87c4b05495fe4d491f68df2f16c91434999618aba4ecce052602992021-02-28 2:30:3169 days 1 hr agoSpeedking: Deployer Speedking: SKT Token0 BNB0.00051646
0x542f57db16269633db8541b87eb515a35d8ed77ab545c76713204bc6b878551352603472021-02-28 2:32:5569 days 1 hr agoSpeedking: Deployer Speedking: SKT Token0 BNB0.00051646
0x03bbe3b32b0e58e1ec9357ab4fbb4c7f73986ae0f7b9cfcf87a4096dabcf905452604022021-02-28 2:35:4069 days 1 hr agoSpeedking: Deployer Speedking: SKT Token0 BNB0.00051646
0xecc07aee0837f6a54ff5ecbae50572488c7eb45835d682cb99ed1fe357b54e6252604392021-02-28 2:37:3169 days 1 hr agoSpeedking: Deployer Speedking: SKT Token0 BNB0.00036646
0x2853b5b7491a80b9802eb5bf4234451e16dbf67d3502af2dd60a270c6aba58e052604772021-02-28 2:39:2569 days 1 hr agoSpeedking: Deployer Speedking: SKT Token0 BNB0.00036646
0xb583ba963fcf33f6d7abcf75f15b51cbd71c39e89c682e7aca2b3d74435c56b552605052021-02-28 2:40:4969 days 1 hr agoSpeedking: Deployer Speedking: SKT Token0 BNB0.00051646
0x003bca36dd8608a945d3990a9f332d057595223e72c39d2809325a6d24260bf552605302021-02-28 2:42:0469 days 1 hr agoSpeedking: Deployer Speedking: SKT Token0 BNB0.00051646
0x3b1ff4aa5de1b26e244af1da3cc4c7881a31c4ae1878193658e267c102527bfa52605552021-02-28 2:43:1969 days 1 hr agoSpeedking: Deployer Speedking: SKT Token0 BNB0.00051634
0x92100f25500134e34bee10f53764a47adf57c1e0adae62c7ded2df6f5fbd5dc452605782021-02-28 2:44:2869 days 1 hr agoSpeedking: Deployer Speedking: SKT Token0 BNB0.00051646
0x18cd1b67c97bf63e22ece3378c76c16569a0c4e290cfc273550bd53fb26c3bd152606002021-02-28 2:45:3469 days 1 hr agoSpeedking: Deployer Speedking: SKT Token0 BNB0.00051646
0xf2fbbe2fae5f4dcddcc88e4914f9d7d33b9ac56e185d90d11f12265bf832ffc552606332021-02-28 2:47:1369 days 1 hr agoSpeedking: Deployer Speedking: SKT Token0 BNB0.00051646
0x96f5faf261e97b666c301f449300a81efd023182ac25c1c5aa23de74f58d175152606482021-02-28 2:47:5869 days 1 hr agoSpeedking: Deployer Speedking: SKT Token0 BNB0.00051646
0x12f1c93cefb5bedb3a36f2765c737d13cc18fe22b6f7cf5c8a18ecd45ca5ce9752606662021-02-28 2:48:5269 days 1 hr agoSpeedking: Deployer Speedking: SKT Token0 BNB0.00051646
0x6f55fbdac568af4ffd48b3ddf1d156e66b688c9658c03b14e86e341843fa05f752606812021-02-28 2:49:3769 days 1 hr agoSpeedking: Deployer Speedking: SKT Token0 BNB0.00051646
0x5385e3ad5971434f2f67940bf1f04b0ba8b963e5df3d9103b05af6c1abcc47f652607262021-02-28 2:51:5269 days 1 hr agoSpeedking: Deployer Speedking: SKT Token0 BNB0.00051646
0x66c15b2dd5a67cff01f54cb96cdac728375aaea72f4c39dd359beca2aa1d3dae52607402021-02-28 2:52:3469 days 1 hr agoSpeedking: Deployer Speedking: SKT Token0 BNB0.00051646
0x85d483cddc8f5b656ebc40862b192119928e5a45184cd2ecb71b47f01dd6bb7052607712021-02-28 2:54:0769 days 1 hr agoSpeedking: Deployer Speedking: SKT Token0 BNB0.00051646
0x4f8f4a67503605503c9ca37f63e05eb640d6687d2b9dec09a815b387ea5ecda052607872021-02-28 2:54:5569 days 1 hr agoSpeedking: Deployer Speedking: SKT Token0 BNB0.00051646
0xec846e821b018f9ad803fd6f35cdbe4b78b4e3797424b29473ae2fa304a8880952608072021-02-28 2:55:5569 days 1 hr agoSpeedking: Deployer Speedking: SKT Token0 BNB0.00051646
0x975851d137f9913cd048cfa80f32e32f942b1f75c1a7195f3e0b2e8373caea3452608262021-02-28 2:56:5269 days 1 hr agoSpeedking: Deployer Speedking: SKT Token0 BNB0.00051646
0x9d096eaabd80a2ca38534821143d6a87fb235e366d03ef441c344fc9ff1f7d9752608582021-02-28 2:58:2869 days 1 hr agoSpeedking: Deployer Speedking: SKT Token0 BNB0.00051646
0xd635c793cec9578dee1c9c3f40986200987a77555b8fae6ebd796d399273598c52608792021-02-28 2:59:3169 days 1 hr agoSpeedking: Deployer Speedking: SKT Token0 BNB0.00051646
0x622b910767f96fce97ed03ffd736c1f85c81b6fbe064f53ab1e21791e6ff131e52608942021-02-28 3:00:1669 days 1 hr agoSpeedking: Deployer Speedking: SKT Token0 BNB0.00051646
0x2f3d4ab49ac4c15c413264199978795d51334b907dc85bde69b366085b288dcb52609212021-02-28 3:01:3769 days 1 hr agoSpeedking: Deployer Speedking: SKT Token0 BNB0.00051646
0x70c44a14cdefe73ac5232abdf6cdcd3fb0d115570c5773aac1b12dd5c3d6d83152609412021-02-28 3:02:3769 days 1 hr agoSpeedking: Deployer Speedking: SKT Token0 BNB0.00051646
0xf7dc7d1995de82609d12dc9123678d863152e8341c32c221658099b62c44dde552609572021-02-28 3:03:2569 days 1 hr agoSpeedking: Deployer Speedking: SKT Token0 BNB0.00051646
0x1a6d68f996122979b8f1efa92b3b8474e618d49603a87199e99bfc123743090052609792021-02-28 3:04:3169 days 1 hr agoSpeedking: Deployer Speedking: SKT Token0 BNB0.00051646
0x5a5e33cc3abd3ece004b9f1d2aac5d2f9b11971f4f8269a74ba51420d08ad49752609962021-02-28 3:05:2269 days 1 hr agoSpeedking: Deployer Speedking: SKT Token0 BNB0.00051646
0x1d376b52ce8f72d4a9267e3e3ac01d6d388754484020e74a1d2671f9bc89a23b52610152021-02-28 3:06:1969 days 1 hr agoSpeedking: Deployer Speedking: SKT Token0 BNB0.00051646
0x21bc5fc1e1d3b280f4b1f0570ff5167ef39b182a26118b6e1eb0ed9e2d59945e52610292021-02-28 3:07:0169 days 1 hr agoSpeedking: Deployer Speedking: SKT Token0 BNB0.00051646
0x9c6b0658919010275d78bf7d221bb0d6ed9007ade4d930fd5f6ac6eee945230652610552021-02-28 3:08:1969 days 1 hr agoSpeedking: Deployer Speedking: SKT Token0 BNB0.00051646
0xe6ed5d3dcd1c4f7a0b0e764472e084d15a448830445637035ba21994e5de742b52610942021-02-28 3:10:1669 days 1 hr agoSpeedking: Deployer Speedking: SKT Token0 BNB0.00051646
0xcdafa6e491b8638b4c8ae9eddb8b2a99cfb264a25184905e453840cb8ede2ca652611202021-02-28 3:11:3469 days 1 hr agoSpeedking: Deployer Speedking: SKT Token0 BNB0.00036646
0x3097b185b44feecb4edf1d629f12e33f9fe19a76fee598a95f48e8b78c0903cb52611292021-02-28 3:12:0169 days 1 hr agoSpeedking: Deployer Speedking: SKT Token0 BNB0.00051646
0xbd8954569ab4f33f87aebf0a48584b31c55addb9108f28d30814379fb1b8831352611452021-02-28 3:12:4969 days 1 hr agoSpeedking: Deployer Speedking: SKT Token0 BNB0.00051646
0xe872bd420c5b726f9f3ff223b23f8b3254518a343e81327d5b55864b0ec85fb152611602021-02-28 3:13:3469 days 1 hr agoSpeedking: Deployer Speedking: SKT Token0 BNB0.00051634
0xd5e3e4d9cf6c91dd0d0525169e59db3836ec523f2c71024ce6fd207cc88f6fa352611772021-02-28 3:14:2569 days 1 hr agoSpeedking: Deployer Speedking: SKT Token0 BNB0.00051646
0x69b033e11e02c1c42c9edca12c5a1323d1ff4f78ea7750476a636c35c62d789352612022021-02-28 3:15:4069 days 1 hr agoSpeedking: Deployer Speedking: SKT Token0 BNB0.00051646
Show Records